Location: Bremen
(53.0793°N, 8.8017°E)
Time: 16:58:30
(UTC+01:00)

Transit 2A - Pass Details

Date: 29 November 2022
Orbit: 594 x 962 km, 66.7° (Epoch: 31 January)

Event Time Altitude Azimuth Distance (km) Brightness Sun altitude
Rises 18:10:24 0° 317° (NW) 3,151 9.6 -16.7°
Reaches altitude 10° 18:12:42 10° 313° (NW) 2,281 8.9 -17.0°
Maximum altitude 18:17:47 52° 238° (WSW) 1,005 7.0 -17.8°
Drops below altitude 10° 18:23:22 10° 164° (SSE) 2,509 8.6 -18.6°
Sets 18:26:01 0° 160° (SSE) 3,495 9.3 -19.0°
